Location: ????????
(60.4333°N, 46.4710°E)
Time: 03:13:45
(UTC+00:00)

Cosmos 2298 Rocket - Pass Details

Date: 25 November 2020
Orbit: 775 x 784 km, 74.0° (Epoch: 19 January)

Event Time Altitude Azimuth Distance (km) Brightness Sun altitude
Rises 12:50:56 0° 326° (NW) 3,271 7.3 -5.6°
Reaches altitude 10° 12:53:20 10° 327° (NNW) 2,341 6.5 -5.8°
Maximum altitude 12:58:40 81° 56° (NE) 796 4.0 -6.4°
Drops below altitude 10° 13:03:59 10° 144° (SE) 2,333 6.5 -6.9°
Sets 13:06:22 0° 146° (SE) 3,259 7.2 -7.2°
